When you browse on this site, cookies collect data to enhance your experience and personalize the content and advertising you see.
Visit our Privacy Policy to learn more. By continuing to use the site, you agree to this use of cookies and data.
  • Em Portugal
  • Lista de países
  • Para 7 dias
  • Temperatura da água
  • Mapas de satélite
  • Mapa do tempo
  • Widgets de tempo
  • user-avatar
    Iniciar Sessão

    Previsão horária em Kerman

    Hoje, 23 Março, Sábado

    Tempo Temperatura Precipitação Vento Pressão Humidade
    00:00 +12°C° 0 mm 2 m/s 605 mmHg 54%
    01:00 +10°C° 0 mm 2 m/s 604 mmHg 58%
    02:00 +10°C° 0 mm 2 m/s 604 mmHg 59%
    03:00 +10°C° 0 mm 1 m/s 604 mmHg 60%
    04:00 +10°C° 0 mm 1 m/s 604 mmHg 61%
    05:00 +10°C° 0 mm 1 m/s 604 mmHg 60%
    06:00 +10°C° 0 mm 1 m/s 604 mmHg 58%
    07:00 +10°C° 0 mm 1 m/s 604 mmHg 57%
    08:00 +11°C° 0 mm 1 m/s 605 mmHg 49%
    09:00 +12°C° 0 mm 1 m/s 605 mmHg 41%
    10:00 +14°C° 0 mm 1 m/s 606 mmHg 33%
    11:00 +15°C° 0 mm 2 m/s 606 mmHg 30%
    12:00 +16°C° 0 mm 2 m/s 606 mmHg 26%
    13:00 +17°C° 0 mm 3 m/s 606 mmHg 23%
    14:00 +17°C° 0 mm 4 m/s 606 mmHg 23%
    15:00 +17°C° 0 mm 4 m/s 605 mmHg 24%
    16:00 +17°C° 0 mm 5 m/s 605 mmHg 24%
    17:00 +16°C° 0.5 mm 5 m/s 605 mmHg 30%
    18:00 +15°C° 0.5 mm 5 m/s 604 mmHg 36%
    19:00 +14°C° 0.5 mm 5 m/s 604 mmHg 42%
    20:00 +13°C° 0.4 mm 4 m/s 604 mmHg 45%
    21:00 +13°C° 0.4 mm 3 m/s 604 mmHg 48%
    22:00 +12°C° 0.4 mm 3 m/s 604 mmHg 51%
    23:00 +12°C° 0.1 mm 3 m/s 604 mmHg 53%

    Amanhã, 24 Março, Domingo

    Tempo Temperatura Precipitação Vento Pressão Humidade
    00:00 +12°C° 0.1 mm 2 m/s 604 mmHg 56%
    01:00 +12°C° 0.1 mm 2 m/s 603 mmHg 58%
    02:00 +10°C° 0 mm 2 m/s 603 mmHg 59%
    03:00 +11°C° 0 mm 1 m/s 603 mmHg 61%
    04:00 +10°C° 0 mm 1 m/s 603 mmHg 62%
    05:00 +10°C° 0 mm 1 m/s 603 mmHg 62%
    06:00 +9°C° 0 mm 2 m/s 603 mmHg 62%
    07:00 +9°C° 0 mm 2 m/s 603 mmHg 61%
    08:00 +12°C° 0 mm 2 m/s 604 mmHg 55%
    09:00 +13°C° 0 mm 1 m/s 604 mmHg 48%
    10:00 +14°C° 0 mm 1 m/s 605 mmHg 41%
    11:00 +15°C° 0 mm 1 m/s 605 mmHg 35%
    12:00 +16°C° 0 mm 2 m/s 605 mmHg 29%
    13:00 +18°C° 0 mm 2 m/s 605 mmHg 22%
    14:00 +18°C° 0 mm 3 m/s 605 mmHg 23%
    15:00 +17°C° 0 mm 5 m/s 604 mmHg 23%
    16:00 +19°C° 0 mm 6 m/s 604 mmHg 23%
    17:00 +17°C° 0 mm 6 m/s 604 mmHg 25%
    18:00 +17°C° 0 mm 6 m/s 604 mmHg 26%
    19:00 +16°C° 0 mm 5 m/s 604 mmHg 28%
    20:00 +16°C° 0 mm 5 m/s 604 mmHg 32%
    21:00 +15°C° 0 mm 4 m/s 604 mmHg 36%
    22:00 +15°C° 0 mm 4 m/s 604 mmHg 39%
    23:00 +14°C° 0 mm 3 m/s 604 mmHg 43%

    Depois de amanhã, 25 Março, Segunda-feira

    Tempo Temperatura Precipitação Vento Pressão Humidade
    00:00 +14°C° 0 mm 3 m/s 604 mmHg 46%
    01:00 +13°C° 0 mm 3 m/s 603 mmHg 49%
    02:00 +12°C° 0 mm 3 m/s 603 mmHg 48%
    03:00 +13°C° 0 mm 2 m/s 603 mmHg 48%
    04:00 +12°C° 0 mm 2 m/s 602 mmHg 47%
    05:00 +13°C° 0 mm 2 m/s 603 mmHg 46%
    06:00 +12°C° 0 mm 3 m/s 603 mmHg 45%
    07:00 +12°C° 0 mm 3 m/s 603 mmHg 44%
    08:00 +14°C° 0 mm 5 m/s 604 mmHg 39%
    09:00 +17°C° 0 mm 7 m/s 605 mmHg 33%
    10:00 +19°C° 0 mm 9 m/s 606 mmHg 27%
    11:00 +19°C° 0.1 mm 10 m/s 606 mmHg 31%
    12:00 +19°C° 0.1 mm 10 m/s 606 mmHg 34%
    13:00 +19°C° 0.1 mm 11 m/s 606 mmHg 38%
    14:00 +19°C° 0.1 mm 10 m/s 605 mmHg 38%
    15:00 +19°C° 0.1 mm 9 m/s 605 mmHg 37%
    16:00 +20°C° 0.1 mm 8 m/s 605 mmHg 37%
    17:00 +19°C° 0.8 mm 6 m/s 604 mmHg 43%
    18:00 +17°C° 0.8 mm 5 m/s 604 mmHg 49%
    19:00 +17°C° 0.8 mm 3 m/s 604 mmHg 54%
    20:00 +17°C° 0.2 mm 3 m/s 604 mmHg 55%
    21:00 +16°C° 0.2 mm 3 m/s 604 mmHg 57%
    22:00 +16°C° 0.2 mm 2 m/s 605 mmHg 58%
    23:00 +16°C° 0 mm 2 m/s 604 mmHg 57%

    26 Março, Terça-feira

    Tempo Temperatura Precipitação Vento Pressão Humidade
    00:00 +15°C° 0 mm 2 m/s 604 mmHg 55%
    01:00 +15°C° 0 mm 2 m/s 603 mmHg 54%
    02:00 +15°C° 0 mm 2 m/s 603 mmHg 56%
    03:00 +14°C° 0 mm 1 m/s 603 mmHg 58%
    04:00 +14°C° 0 mm 1 m/s 602 mmHg 60%
    05:00 +14°C° 0.2 mm 1 m/s 603 mmHg 60%
    06:00 +14°C° 0.2 mm 2 m/s 603 mmHg 60%
    07:00 +14°C° 0.2 mm 2 m/s 604 mmHg 60%
    08:00 +14°C° 0 mm 4 m/s 605 mmHg 53%
    09:00 +16°C° 0 mm 5 m/s 605 mmHg 46%
    10:00 +18°C° 0 mm 7 m/s 606 mmHg 39%
    11:00 +18°C° 0.1 mm 9 m/s 606 mmHg 36%
    12:00 +19°C° 0.1 mm 11 m/s 607 mmHg 34%
    13:00 +20°C° 0.1 mm 13 m/s 607 mmHg 31%
    14:00 +20°C° 0.2 mm 14 m/s 606 mmHg 32%
    15:00 +19°C° 0.2 mm 15 m/s 606 mmHg 33%
    16:00 +19°C° 0.2 mm 16 m/s 605 mmHg 34%
    17:00 +18°C° 0 mm 15 m/s 605 mmHg 34%
    18:00 +17°C° 0 mm 13 m/s 605 mmHg 34%
    19:00 +17°C° 0 mm 11 m/s 605 mmHg 34%
    20:00 +16°C° 0 mm 11 m/s 605 mmHg 36%
    21:00 +16°C° 0 mm 10 m/s 605 mmHg 39%
    22:00 +15°C° 0 mm 9 m/s 605 mmHg 41%
    23:00 +15°C° 0 mm 9 m/s 605 mmHg 41%

    27 Março, Quarta-feira

    Tempo Temperatura Precipitação Vento Pressão Humidade
    00:00 +15°C° 0 mm 8 m/s 605 mmHg 41%
    01:00 +13°C° 0 mm 8 m/s 604 mmHg 41%
    02:00 +14°C° 0.1 mm 7 m/s 604 mmHg 46%
    03:00 +13°C° 0.1 mm 6 m/s 604 mmHg 51%
    04:00 +13°C° 0.1 mm 5 m/s 604 mmHg 56%
    05:00 +12°C° 0 mm 5 m/s 604 mmHg 56%
    06:00 +12°C° 0 mm 5 m/s 605 mmHg 57%
    07:00 +12°C° 0 mm 5 m/s 605 mmHg 58%
    08:00 +13°C° 0 mm 8 m/s 606 mmHg 51%
    09:00 +14°C° 0 mm 10 m/s 606 mmHg 45%
    10:00 +15°C° 0 mm 12 m/s 607 mmHg 38%
    11:00 +17°C° 0 mm 12 m/s 607 mmHg 36%
    12:00 +17°C° 0 mm 13 m/s 607 mmHg 34%
    13:00 +18°C° 0 mm 13 m/s 606 mmHg 32%
    14:00 +18°C° 0 mm 13 m/s 606 mmHg 28%
    15:00 +19°C° 0 mm 12 m/s 606 mmHg 23%
    16:00 +19°C° 0 mm 12 m/s 606 mmHg 19%
    17:00 +18°C° 0 mm 10 m/s 606 mmHg 20%
    18:00 +17°C° 0 mm 9 m/s 606 mmHg 22%
    19:00 +16°C° 0 mm 7 m/s 606 mmHg 23%
    20:00 +15°C° 0 mm 6 m/s 606 mmHg 28%
    21:00 +15°C° 0 mm 5 m/s 606 mmHg 33%
    22:00 +14°C° 0 mm 4 m/s 606 mmHg 38%
    23:00 +13°C° 0 mm 3 m/s 606 mmHg 44%

    28 Março, Quinta-feira

    Tempo Temperatura Precipitação Vento Pressão Humidade
    00:00 +13°C° 0 mm 3 m/s 605 mmHg 49%
    01:00 +12°C° 0 mm 3 m/s 605 mmHg 55%
    02:00 +12°C° 0 mm 2 m/s 605 mmHg 57%
    03:00 +12°C° 0 mm 2 m/s 605 mmHg 58%
    04:00 +10°C° 0 mm 2 m/s 604 mmHg 60%
    05:00 +10°C° 0 mm 2 m/s 605 mmHg 58%
    06:00 +10°C° 0 mm 2 m/s 605 mmHg 57%
    07:00 +10°C° 0 mm 2 m/s 605 mmHg 55%
    08:00 +13°C° 0 mm 2 m/s 606 mmHg 43%
    09:00 +15°C° 0 mm 2 m/s 607 mmHg 31%
    10:00 +16°C° 0 mm 1 m/s 608 mmHg 19%
    11:00 +18°C° 0 mm 2 m/s 608 mmHg 16%
    12:00 +19°C° 0 mm 2 m/s 608 mmHg 13%
    13:00 +20°C° 0 mm 2 m/s 608 mmHg 9%
    14:00 +21°C° 0 mm 3 m/s 608 mmHg 9%
    15:00 +22°C° 0 mm 4 m/s 608 mmHg 9%
    16:00 +22°C° 0 mm 4 m/s 607 mmHg 8%
    17:00 +21°C° 0 mm 4 m/s 607 mmHg 11%
    18:00 +20°C° 0 mm 4 m/s 607 mmHg 13%
    19:00 +19°C° 0 mm 3 m/s 607 mmHg 16%
    20:00 +19°C° 0 mm 3 m/s 607 mmHg 18%
    21:00 +18°C° 0 mm 2 m/s 607 mmHg 19%
    22:00 +17°C° 0 mm 2 m/s 606 mmHg 21%
    23:00 +16°C° 0 mm 2 m/s 606 mmHg 23%
    Mostrar mais